Akron Canton, OH

5:56 AM EDT on September 24, 2017 (GMT -0400)
Akron-Canton Regional

Weather History for KCAK - September, 2012

Change the Weather History Date:

Tuesday, September 4, 2012

  Actual Average Record
Temperature  
Mean Temperature 74 °F 67 °F  
Max Temperature 77 °F 77 °F 95 °F (1953)
Min Temperature 70 °F 57 °F 43 °F (1997)
Degree Days  
Heating Degree Days 0 1  
Month to date heating degree days 0 4  
Since 1 July heating degree days 2 24  
Cooling Degree Days 9 4  
Month to date cooling degree days 45 16  
Year to date cooling degree days 998 598  
Growing Degree Days 24 (Base 50)    
Moisture  
Dew Point 69 °F    
Average Humidity 83    
Maximum Humidity 93    
Minimum Humidity 73    
Precipitation  
Precipitation 0.45 in 0.12 in 1.27 in (1958)
Month to date precipitation 0.82 0.48  
Year to date precipitation 24.23 27.68  
Snow  
Snow 0.00 in 0.00 in - ()
Month to date snowfall 0.0 0.0  
Since 1 July snowfall 0.0 0.0  
Since 1 September snowfall 0.0 0.0  
Snow Depth 0.00 in    
Sea Level Pressure  
Sea Level Pressure 29.88 in    
Wind  
Wind Speed 6 mph (SW)    
Max Wind Speed 14 mph    
Max Gust Speed 43 mph    
Visibility 4 miles    
Events Rain    
T = Trace of Precipitation, MM = Missing Value Source: NWS Daily Summary

Daily Weather History Graph

Daily Weather History Graph

Search for Another Location

Airport or City:

Trip Planner

Search our weather history database for the weather conditions in past years. The results will help you decide how hot, cold, wet, or windy it might be!

Date:

Astronomy

Sep. 04, 2012 Rise Set
Actual Time 6:55 AM EDT 7:52 PM EDT
Civil Twilight 6:27 AM EDT 8:20 PM EDT
Nautical Twilight 5:54 AM EDT 8:53 PM EDT
Astronomical Twilight 5:19 AM EDT 9:28 PM EDT
Moon 9:42 PM EDT (9/4) 11:03 AM EDT (9/4)
Length of Visible Light 13h 52m
Length of Day
12h 56m
Waning Gibbous, 84% of the Moon is Illuminated
Sep 4
Waning Gibbous
Sep 8
Last Quarter
Sep 15
New
Sep 22
First Quarter
Sep 29
Full

Hourly Weather History & Observations

Time (EDT) Temp. Dew Point Humidity Pressure Visibility Wind Dir Wind Speed Gust Speed Precip Events Conditions
12:51 AM 73.0 °F 64.9 °F 76% 29.94 in 10.0 mi SSE 9.2 mph - N/A   Mostly Cloudy
1:51 AM 72.0 °F 66.0 °F 81% 29.92 in 10.0 mi SSE 5.8 mph - N/A   Mostly Cloudy
2:51 AM 73.0 °F 66.0 °F 79% 29.90 in 10.0 mi SE 5.8 mph - N/A   Overcast
3:51 AM 73.0 °F 66.0 °F 79% 29.89 in 10.0 mi SSE 6.9 mph - N/A   Overcast
4:13 AM 73.4 °F 66.2 °F 78% 29.92 in 10.0 mi SSE 6.9 mph - N/A   Overcast
4:51 AM 73.0 °F 66.9 °F 81% 29.88 in 10.0 mi SSE 9.2 mph - N/A   Overcast
5:51 AM 73.0 °F 66.9 °F 81% 29.90 in 9.0 mi South 6.9 mph - N/A   Overcast
6:44 AM 71.6 °F 68.0 °F 88% 29.94 in 5.0 mi South 5.8 mph - 0.00 in Rain Light Rain
6:51 AM 72.0 °F 68.0 °F 87% 29.91 in 2.5 mi SSE 8.1 mph - 0.00 in Rain Light Rain
7:51 AM 71.1 °F 68.0 °F 90% 29.91 in 2.5 mi SSE 8.1 mph - 0.02 in Rain Light Rain
8:13 AM 71.6 °F 68.0 °F 88% 29.93 in 2.5 mi South 6.9 mph - 0.00 in Rain Light Rain
8:48 AM 71.6 °F 69.8 °F 94% 29.92 in 1.2 mi South 8.1 mph - 0.00 in Rain Light Rain
8:51 AM 72.0 °F 69.1 °F 91% 29.90 in 1.2 mi South 8.1 mph - 0.00 in Rain Light Rain
9:51 AM 73.0 °F 70.0 °F 90% 29.89 in 1.2 mi SSW 6.9 mph - 0.01 in   Overcast
10:51 AM 73.0 °F 69.1 °F 87% 29.89 in 1.2 mi SSW 6.9 mph - 0.00 in   Overcast
11:51 AM 75.0 °F 71.1 °F 87% 29.88 in 1.2 mi SW 6.9 mph - 0.00 in   Overcast
12:51 PM 75.0 °F 70.0 °F 84% 29.87 in 2.0 mi WSW 8.1 mph - 0.01 in Rain Light Rain
1:37 PM 75.2 °F 71.6 °F 89% 29.89 in 2.0 mi WNW 4.6 mph - 0.03 in   Overcast
1:51 PM 75.9 °F 71.1 °F 85% 29.86 in 3.0 mi West 3.5 mph - 0.03 in   Haze
2:42 PM 75.2 °F 71.6 °F 89% 29.88 in 1.0 mi West 4.6 mph - 0.06 in Rain Rain
2:51 PM 75.0 °F 71.1 °F 87% 29.85 in 1.0 mi WNW 3.5 mph - 0.07 in Rain Rain
3:06 PM 73.4 °F 71.6 °F 94% 29.86 in 2.0 mi WNW 3.5 mph - 0.01 in Rain Rain
3:51 PM 75.9 °F 71.1 °F 85% 29.83 in 2.0 mi WSW 5.8 mph - 0.03 in Rain Light Rain
4:51 PM 75.9 °F 71.1 °F 85% 29.82 in 2.0 mi SW 3.5 mph - 0.00 in   Mostly Cloudy
5:27 PM 73.4 °F 71.6 °F 94% 29.85 in 1.0 mi West 13.8 mph - 0.09 in Rain Heavy Rain
5:51 PM 73.9 °F 70.0 °F 87% 29.82 in 3.0 mi West 6.9 mph - 0.23 in   Overcast
6:06 PM 73.4 °F 71.6 °F 94% 29.86 in 3.0 mi West 6.9 mph - N/A   Overcast
6:41 PM 73.4 °F 69.8 °F 88% 29.85 in 3.0 mi NNW 4.6 mph - 0.05 in Rain Light Rain
6:51 PM 75.0 °F 70.0 °F 84% 29.83 in 3.0 mi Calm Calm - 0.05 in   Mostly Cloudy
7:51 PM 73.0 °F 69.1 °F 87% 29.84 in 3.0 mi NW 3.5 mph - N/A   Mostly Cloudy
8:51 PM 73.0 °F 69.1 °F 87% 29.85 in 3.0 mi NW 5.8 mph - N/A   Overcast
9:51 PM 73.0 °F 69.1 °F 87% 29.86 in 3.0 mi NW 3.5 mph - N/A   Overcast
10:51 PM 72.0 °F 69.1 °F 91% 29.85 in 4.0 mi NNW 3.5 mph - N/A   Overcast
11:51 PM 71.1 °F 68.0 °F 90% 29.86 in 4.0 mi NW 4.6 mph - N/A   Mostly Cloudy